DW4273 Weather Reports


Display with metric or nautical units.
time (UTC)temp
F
wind
direction
speed
MPH
gust
MPH
rain 1hr
in
rain 24hr
in
rain mn
in
humidity
%
barometer
mb
20260831115017 70 180 1.0 3.0 0.00 0.00 0.00 91 1016.6
20260831114017 70 0.0 1.0 0.00 0.00 0.00 90 1016.7
20260831113017 71 0.0 2.0 0.00 0.00 0.00 90 1016.8
20260831112017 71 180 2.0 5.0 0.00 0.00 0.00 90 1016.6
20260831111017 71 180 5.0 7.0 0.00 0.00 0.00 89 1016.6
20260831110017 71 0.0 0.0 0.00 0.00 0.00 89 1016.5
20260831105017 71 0.0 3.0 0.00 0.00 0.00 89 1016.3
20260831104017 71 158 1.0 4.0 0.00 0.00 0.00 89 1016.1
20260831103017 71 180 2.0 5.0 0.00 0.00 0.00 89 1016.1
20260831102017 71 180 2.0 5.0 0.00 0.00 0.00 89 1016.0
20260831101017 71 180 1.0 4.0 0.00 0.00 0.00 89 1016.0
20260831100117 71 203 2.0 4.0 0.00 0.00 0.00 89 1016.0
20260831095018 71 0.0 3.0 0.00 0.00 0.00 89 1016.0
20260831094017 71 0.0 2.0 0.00 0.00 0.00 89 1015.9
20260831093017 71 203 1.0 4.0 0.00 0.00 0.00 89 1016.0
20260831092017 71 158 1.0 4.0 0.00 0.00 0.00 89 1016.0
20260831091017 70 180 1.0 3.0 0.00 0.00 0.00 89 1016.1
20260831090017 70 0.0 2.0 0.00 0.00 0.00 89 1016.0
20260831085017 70 0.0 2.0 0.00 0.00 0.00 89 1015.9
20260831084057 70 0.0 2.0 0.00 0.00 0.00 89 1015.9
20260831083017 70 0.0 1.0 0.00 0.00 0.00 89 1015.9
20260831082017 70 0.0 2.0 0.00 0.00 0.00 88 1015.8
20260831081017 70 0.0 0.0 0.00 0.00 0.00 88 1016.0
20260831080017 70 0.0 1.0 0.00 0.00 0.00 88 1016.1
20260831075017 70 0.0 1.0 0.00 0.00 0.00 88 1016.2
20260831074017 70 0.0 3.0 0.00 0.00 0.00 88 1016.2
20260831073017 70 0.0 2.0 0.00 0.00 0.00 88 1016.3
20260831072017 70 158 1.0 2.0 0.00 0.00 0.00 88 1016.3
20260831071017 70 180 1.0 5.0 0.00 0.00 0.00 88 1016.3
20260831070017 70 158 2.0 5.0 0.00 0.00 0.00 87 1016.3
20260831065037 70 158 1.0 3.0 0.00 0.00 0.00 87 1016.4
20260831064017 70 180 2.0 4.0 0.00 0.00 0.00 87 1016.5
20260831063017 70 180 1.0 3.0 0.00 0.00 0.00 87 1016.5
20260831062017 70 0.0 1.0 0.00 0.00 0.00 87 1016.7
20260831061017 70 180 1.0 3.0 0.00 0.00 0.00 88 1016.7
20260831060017 70 0.0 1.0 0.00 0.00 0.00 88 1016.7
20260831055017 70 0.0 2.0 0.00 0.00 0.00 88 1016.9
20260831054017 70 203 1.0 2.0 0.00 0.00 0.00 88 1016.8
20260831053017 70 203 1.0 5.0 0.00 0.00 0.00 88 1016.8
20260831052017 70 180 1.0 4.0 0.00 0.00 0.00 88 1016.9
20260831051017 70 180 1.0 3.0 0.00 0.00 0.00 88 1016.9
20260831050017 70 0.0 3.0 0.00 0.00 0.00 88 1016.9
20260831045017 70 0.0 2.0 0.00 0.00 0.00 88 1016.9
20260831044017 70 0.0 3.0 0.00 0.00 0.00 89 1016.9
20260831043017 70 0.0 2.0 0.00 0.00 0.00 89 1016.9
20260831042037 70 135 1.0 3.0 0.00 0.00 0.00 89 1017.0
20260831041017 70 0.0 1.0 0.00 0.00 0.00 89 1017.0
20260831040117 70 158 1.0 4.0 0.00 0.00 0.00 89 1017.1
20260831035036 69 0.0 1.0 0.00 0.00 0.00 89 1017.2
20260831034017 69 0.0 1.0 0.00 0.00 0.00 89 1017.2
20260831033016 69 0.0 1.0 0.00 0.00 0.00 89 1017.3
20260831032017 70 0.0 0.0 0.00 0.00 0.00 89 1017.4
20260831031017 70 0.0 3.0 0.00 0.00 0.00 89 1017.5
20260831030017 70 0.0 0.0 0.00 0.00 0.00 89 1017.6
20260831025016 70 0.0 0.0 0.00 0.00 0.00 88 1017.6
20260831024017 70 0.0 1.0 0.00 0.00 0.00 88 1017.6
20260831023017 71 0.0 0.0 0.00 0.00 0.00 88 1017.9
20260831022037 71 68 1.0 2.0 0.00 0.00 0.00 88 1017.9
20260831021016 71 0.0 1.0 0.00 0.00 0.00 88 1017.9
20260831020056 71 315 3.0 5.0 0.00 0.00 0.00 88 1018.0
20260831015017 71 0.0 0.0 0.00 0.00 0.00 87 1017.8
20260831014017 71 0.0 0.0 0.00 0.00 0.00 87 1017.9
20260831013017 71 0.0 2.0 0.00 0.00 0.00 87 1017.9
20260831012036 71 0.0 0.0 0.00 0.00 0.00 86 1017.8
20260831011017 72 0.0 0.0 0.00 0.00 0.00 86 1017.8
20260831010037 72 0.0 0.0 0.00 0.00 0.00 85 1017.6
20260831005057 72 0.0 0.0 0.00 0.00 0.00 85 1017.5
20260831004037 72 0.0 0.0 0.00 0.00 0.00 84 1017.4
20260831003057 72 0.0 0.0 0.00 0.00 0.00 84 1017.4
20260831002017 73 0.0 0.0 0.00 0.00 0.00 83 1017.4
20260831001037 73 0.0 0.0 0.00 0.00 0.00 83 1017.4
20260831000017 73 0.0 2.0 0.00 0.00 0.00 82 1017.2
20260830235017 74 180 1.0 2.0 0.00 0.00 0.00 82 1017.3
20260830234017 74 0.0 1.0 0.00 0.00 0.00 80 1017.2
20260830233017 75 0.0 0.0 0.00 0.00 0.00 80 1016.8
20260830232017 75 0.0 0.0 0.00 0.00 0.00 79 1016.5
20260830231017 75 0.0 2.0 0.00 0.00 0.00 78 1016.4
20260830230057 75 180 1.0 2.0 0.00 0.00 0.00 78 1016.2
20260830225017 75 180 1.0 3.0 0.00 0.00 0.00 78 1016.1
20260830224017 75 180 2.0 3.0 0.00 0.00 0.00 78 1016.0
20260830223017 76 158 2.0 3.0 0.00 0.00 0.00 77 1016.1
20260830222017 76 158 1.0 3.0 0.00 0.00 0.00 76 1015.9
20260830221017 76 180 2.0 4.0 0.00 0.00 0.00 76 1015.8
20260830220017 76 158 2.0 4.0 0.00 0.00 0.00 75 1015.7
20260830215017 76 158 2.0 4.0 0.00 0.00 0.00 76 1015.7
20260830214037 76 158 1.0 4.0 0.00 0.00 0.00 76 1015.8
20260830213017 76 113 3.0 4.0 0.00 0.00 0.00 74 1015.7
20260830212017 76 158 1.0 4.0 0.00 0.00 0.00 74 1016.2
20260830211017 76 180 2.0 4.0 0.00 0.00 0.00 74 1016.1
20260830210017 75 90 3.0 5.0 0.00 0.00 0.00 73 1016.1
20260830205017 75 113 3.0 5.0 0.00 0.00 0.00 73 1016.2
20260830204017 75 203 4.0 7.0 0.00 0.00 0.00 74 1016.4
20260830203517 75 203 3.0 5.0 0.00 0.00 0.00 75 1016.4
20260830202517 75 180 2.0 5.0 0.00 0.00 0.00 77 1016.2
20260830201517 75 158 3.0 5.0 0.00 0.00 0.00 78 1016.1
20260830200517 75 180 3.0 5.0 0.00 0.00 0.00 79 1016.4
20260830195537 75 180 3.0 5.0 0.00 0.00 0.00 80 1016.6
20260830194517 75 180 3.0 6.0 0.00 0.00 0.00 79 1016.8
20260830193517 75 158 3.0 4.0 0.00 0.00 0.00 79 1017.1
20260830192517 75 203 3.0 5.0 0.00 0.00 0.00 79 1017.3
20260830191517 75 203 3.0 6.0 0.00 0.00 0.00 79 1017.5
20260830190517 76 225 3.0 5.0 0.00 0.00 0.00 79 1017.9
20260830185537 76 248 4.0 6.0 0.00 0.00 0.00 77 1018.1
20260830184517 77 225 4.0 6.0 0.00 0.00 0.00 76 1018.3
20260830183537 77 293 1.0 2.0 0.00 0.00 0.00 73 1018.4
20260830182517 77 293 1.0 2.0 0.00 0.00 0.00 73 1018.5
20260830181517 77 293 1.0 3.0 0.00 0.00 0.00 71 1018.5
20260830180517 77 315 1.0 2.0 0.00 0.00 0.00 71 1018.5
20260830175517 77 315 2.0 4.0 0.00 0.00 0.00 71 1018.5
20260830174517 77 315 1.0 3.0 0.00 0.00 0.00 71 1018.5
20260830173517 77 0 3.0 4.0 0.00 0.00 0.00 70 1018.7
20260830172517 77 23 1.0 4.0 0.00 0.00 0.00 71 1018.7
20260830171517 77 338 2.0 4.0 0.00 0.00 0.00 70 1018.8
20260830170517 77 338 3.0 6.0 0.00 0.00 0.00 70 1018.9
20260830165517 77 270 2.0 4.0 0.00 0.00 0.00 75 1019.0
20260830164517 76 270 1.0 3.0 0.00 0.00 0.00 76 1019.1
20260830163517 75 293 1.0 3.0 0.00 0.00 0.00 76 1019.1
20260830162517 76 293 1.0 3.0 0.00 0.00 0.00 77 1019.3
20260830161637 75 293 2.0 5.0 0.00 0.00 0.00 79 1019.4
20260830160517 75 203 2.0 4.0 0.00 0.00 0.00 79 1019.4
20260830155517 75 315 1.0 3.0 0.00 0.00 0.00 80 1019.2
20260830154637 74 0.0 1.0 0.00 0.00 0.00 80 1019.2
20260830153537 74 0.0 1.0 0.00 0.00 0.00 80 1019.2
20260830152517 74 315 1.0 3.0 0.00 0.00 0.00 79 1019.4
20260830151517 74 0 2.0 3.0 0.00 0.00 0.00 78 1019.2
20260830150517 74 0 1.0 3.0 0.00 0.00 0.00 78 1019.0
20260830145537 73 225 1.0 3.0 0.00 0.00 0.00 78 1018.8
20260830144537 73 248 2.0 2.0 0.00 0.00 0.00 78 1018.7
20260830143537 73 248 1.0 2.0 0.00 0.00 0.00 78 1018.6
20260830142537 73 248 2.0 3.0 0.00 0.00 0.00 77 1018.5
20260830141618 73 225 3.0 5.0 0.00 0.00 0.00 75 1018.3
20260830140537 74 225 4.0 7.0 0.00 0.00 0.00 75 1018.2
20260830135517 73 203 5.0 9.0 0.00 0.00 0.00 75 1018.1
20260830134517 73 203 5.0 7.0 0.00 0.00 0.00 77 1017.9
20260830133517 72 203 4.0 7.0 0.00 0.00 0.00 77 1017.9
20260830132517 72 203 6.0 8.0 0.00 0.00 0.00 77 1017.9
20260830131517 71 203 5.0 8.0 0.00 0.00 0.00 77 1017.8
20260830130517 71 203 5.0 8.0 0.00 0.00 0.00 77 1017.9
20260830125517 70 225 5.0 7.0 0.00 0.00 0.00 79 1018.0
20260830124517 69 203 5.0 8.0 0.00 0.00 0.00 80 1018.0
20260830123517 69 203 5.0 8.0 0.00 0.00 0.00 80 1017.9
20260830122537 68 203 5.0 8.0 0.00 0.00 0.00 79 1017.8
20260830121517 68 203 4.0 7.0 0.00 0.00 0.00 80 1018.1
20260830120517 68 203 4.0 7.0 0.00 0.00 0.00 80 1018.2